Time,TemperatureF,DewpointF,PressureIn,WindDirection,WindDirectionDegrees,WindSpeedMPH,WindSpeedGustMPH,Humidity,HourlyPrecipIn,Conditions,Clouds,dailyrainin,SoftwareType,DateUTC
2013-08-31 00:04:00,70.0,67.0,-100.00,ESE,110,0.0,0.0,90,0.00,,,-99.99,,2013-08-31 05:04:00,
2013-08-31 00:10:00,69.0,66.0,-100.00,ESE,105,0.0,0.0,90,0.00,,,-99.99,,2013-08-31 05:10:00,
2013-08-31 00:43:00,69.0,66.0,-100.00,ESE,105,0.0,0.0,90,0.00,,,-99.99,,2013-08-31 05:43:00,
2013-08-31 00:53:00,69.0,66.0,-100.00,ESE,105,0.0,0.0,90,0.00,,,-99.99,,2013-08-31 05:53:00,
2013-08-31 01:02:00,69.0,66.0,-100.00,ESE,105,0.0,0.0,90,0.00,,,-99.99,,2013-08-31 06:02:00,
2013-08-31 01:10:00,67.0,65.0,-100.00,East,100,0.0,0.0,94,0.00,,,-99.99,,2013-08-31 06:10:00,
2013-08-31 01:42:00,67.0,65.0,-100.00,East,100,0.0,0.0,94,0.00,,,-99.99,,2013-08-31 06:42:00,
2013-08-31 01:52:00,67.0,65.0,-100.00,East,100,0.0,0.0,94,0.00,,,-99.99,,2013-08-31 06:52:00,
2013-08-31 02:02:00,67.0,65.0,-100.00,East,100,0.0,0.0,94,0.00,,,-99.99,,2013-08-31 07:02:00,
2013-08-31 02:12:00,65.0,63.0,-100.00,ESE,110,0.0,0.0,94,0.00,,,-99.99,,2013-08-31 07:12:00,
2013-08-31 02:42:00,65.0,63.0,-100.00,ESE,110,0.0,0.0,94,0.00,,,-99.99,,2013-08-31 07:42:00,
2013-08-31 02:52:00,65.0,63.0,-100.00,ESE,110,0.0,0.0,94,0.00,,,-99.99,,2013-08-31 07:52:00,
2013-08-31 03:03:00,65.0,63.0,-100.00,ESE,110,0.0,0.0,94,0.00,,,-99.99,,2013-08-31 08:03:00,
2013-08-31 03:10:00,64.0,63.0,-100.00,ESE,115,0.0,0.0,96,0.00,,,-99.99,,2013-08-31 08:10:00,
2013-08-31 03:42:00,64.0,63.0,-100.00,ESE,115,0.0,0.0,96,0.00,,,-99.99,,2013-08-31 08:42:00,
2013-08-31 03:52:00,64.0,63.0,-100.00,ESE,115,0.0,0.0,96,0.00,,,-99.99,,2013-08-31 08:52:00,
2013-08-31 04:02:00,64.0,63.0,-100.00,ESE,115,0.0,0.0,96,0.00,,,-99.99,,2013-08-31 09:02:00,
2013-08-31 04:10:00,63.0,62.0,-100.00,ESE,105,0.0,0.0,96,0.00,,,-99.99,,2013-08-31 09:10:00,
2013-08-31 04:44:00,63.0,62.0,-100.00,ESE,105,0.0,0.0,96,0.00,,,-99.99,,2013-08-31 09:44:00,
2013-08-31 04:53:00,63.0,62.0,-100.00,ESE,105,0.0,0.0,96,0.00,,,-99.99,,2013-08-31 09:53:00,
2013-08-31 05:03:00,63.0,62.0,-100.00,ESE,105,0.0,0.0,96,0.00,,,-99.99,,2013-08-31 10:03:00,
2013-08-31 05:10:00,62.0,61.0,-100.00,East,100,0.0,0.0,98,0.00,,,-99.99,,2013-08-31 10:10:00,
2013-08-31 05:43:00,62.0,61.0,-100.00,East,100,0.0,0.0,98,0.00,,,-99.99,,2013-08-31 10:43:00,
2013-08-31 05:53:00,62.0,61.0,-100.00,East,100,0.0,0.0,98,0.00,,,-99.99,,2013-08-31 10:53:00,
2013-08-31 06:02:00,62.0,61.0,-100.00,East,100,0.0,0.0,98,0.00,,,-99.99,,2013-08-31 11:02:00,
2013-08-31 06:42:00,61.0,60.0,-100.00,East,90,0.0,0.0,98,0.00,,,-99.99,,2013-08-31 11:42:00,
2013-08-31 06:52:00,61.0,60.0,-100.00,East,90,0.0,0.0,98,0.00,,,-99.99,,2013-08-31 11:52:00,
2013-08-31 07:02:00,61.0,60.0,-100.00,East,90,0.0,0.0,98,0.00,,,-99.99,,2013-08-31 12:02:00,
2013-08-31 07:11:00,61.0,61.0,-100.00,ESE,105,0.0,0.0,98,0.00,,,-99.99,,2013-08-31 12:11:00,
2013-08-31 07:42:00,61.0,61.0,-100.00,ESE,105,0.0,0.0,98,0.00,,,-99.99,,2013-08-31 12:42:00,
2013-08-31 07:52:00,61.0,61.0,-100.00,ESE,105,0.0,0.0,98,0.00,,,-99.99,,2013-08-31 12:52:00,
2013-08-31 08:01:00,61.0,61.0,-100.00,ESE,105,0.0,0.0,98,0.00,,,-99.99,,2013-08-31 13:01:00,
2013-08-31 08:10:00,62.0,62.0,-100.00,SE,125,0.0,0.0,98,0.00,,,-99.99,,2013-08-31 13:10:00,
2013-08-31 08:42:00,62.0,62.0,-100.00,SE,125,0.0,0.0,98,0.00,,,-99.99,,2013-08-31 13:42:00,
2013-08-31 08:52:00,62.0,62.0,-100.00,SE,125,0.0,0.0,98,0.00,,,-99.99,,2013-08-31 13:52:00,
2013-08-31 09:02:00,62.0,62.0,-100.00,SE,125,0.0,0.0,98,0.00,,,-99.99,,2013-08-31 14:02:00,
2013-08-31 09:42:00,67.0,66.0,-100.00,ESE,110,0.0,0.0,97,0.00,,,-99.99,,2013-08-31 14:42:00,
2013-08-31 09:52:00,67.0,66.0,-100.00,ESE,110,0.0,0.0,97,0.00,,,-99.99,,2013-08-31 14:52:00,
2013-08-31 10:01:00,67.0,66.0,-100.00,ESE,110,0.0,0.0,97,0.00,,,-99.99,,2013-08-31 15:01:00,
2013-08-31 10:10:00,73.0,63.0,-100.00,South,190,0.0,0.0,70,0.00,,,-99.99,,2013-08-31 15:10:00,
2013-08-31 10:11:00,67.0,66.0,-100.00,ESE,110,0.0,0.0,97,0.00,,,-99.99,,2013-08-31 15:11:00,
2013-08-31 10:45:00,73.0,63.0,-100.00,South,190,0.0,0.0,70,0.00,,,-99.99,,2013-08-31 15:45:00,
2013-08-31 10:55:00,73.0,63.0,-100.00,South,190,0.0,0.0,70,0.00,,,-99.99,,2013-08-31 15:55:00,
2013-08-31 11:04:00,73.0,63.0,-100.00,South,190,0.0,0.0,70,0.00,,,-99.99,,2013-08-31 16:04:00,
2013-08-31 11:44:00,76.0,63.0,-100.00,East,90,0.0,0.0,63,0.00,,,-99.99,,2013-08-31 16:44:00,
2013-08-31 11:53:00,76.0,63.0,-100.00,East,90,0.0,0.0,63,0.00,,,-99.99,,2013-08-31 16:53:00,
2013-08-31 12:03:00,76.0,63.0,-100.00,East,90,0.0,0.0,63,0.00,,,-99.99,,2013-08-31 17:03:00,
2013-08-31 12:11:00,79.0,62.0,-100.00,ENE,70,0.0,0.0,57,0.00,,,-99.99,,2013-08-31 17:11:00,
2013-08-31 12:43:00,79.0,62.0,-100.00,ENE,70,0.0,0.0,57,0.00,,,-99.99,,2013-08-31 17:43:00,
2013-08-31 12:53:00,79.0,62.0,-100.00,ENE,70,0.0,0.0,57,0.00,,,-99.99,,2013-08-31 17:53:00,
2013-08-31 13:02:00,79.0,62.0,-100.00,ENE,70,0.0,0.0,57,0.00,,,-99.99,,2013-08-31 18:02:00,
2013-08-31 13:11:00,80.0,61.0,-100.00,ENE,65,0.0,0.0,54,0.00,,,-99.99,,2013-08-31 18:11:00,
2013-08-31 13:42:00,80.0,61.0,-100.00,ENE,65,0.0,0.0,54,0.00,,,-99.99,,2013-08-31 18:42:00,
2013-08-31 13:52:00,80.0,61.0,-100.00,ENE,65,0.0,0.0,54,0.00,,,-99.99,,2013-08-31 18:52:00,
2013-08-31 14:01:00,80.0,61.0,-100.00,ENE,65,0.0,0.0,54,0.00,,,-99.99,,2013-08-31 19:01:00,
2013-08-31 14:10:00,81.0,62.0,-100.00,East,100,0.0,0.0,53,0.00,,,-99.99,,2013-08-31 19:10:00,
2013-08-31 14:42:00,81.0,62.0,-100.00,East,100,0.0,0.0,53,0.00,,,-99.99,,2013-08-31 19:42:00,
2013-08-31 14:52:00,81.0,62.0,-100.00,East,100,0.0,0.0,53,0.00,,,-99.99,,2013-08-31 19:52:00,
2013-08-31 15:02:00,81.0,62.0,-100.00,East,100,0.0,0.0,53,0.00,,,-99.99,,2013-08-31 20:02:00,
2013-08-31 15:12:00,83.0,60.0,-100.00,SSE,150,0.0,0.0,46,0.00,,,-99.99,,2013-08-31 20:12:00,
2013-08-31 15:43:00,83.0,60.0,-100.00,SSE,150,0.0,0.0,46,0.00,,,-99.99,,2013-08-31 20:43:00,
2013-08-31 15:53:00,83.0,60.0,-100.00,SSE,150,0.0,0.0,46,0.00,,,-99.99,,2013-08-31 20:53:00,
2013-08-31 16:02:00,83.0,60.0,-100.00,SSE,150,0.0,0.0,46,0.00,,,-99.99,,2013-08-31 21:02:00,
2013-08-31 16:12:00,84.0,60.0,-100.00,SSW,205,0.0,0.0,45,0.00,,,-99.99,,2013-08-31 21:12:00,
2013-08-31 16:44:00,84.0,60.0,-100.00,SSW,205,0.0,0.0,45,0.00,,,-99.99,,2013-08-31 21:44:00,
2013-08-31 16:54:00,84.0,60.0,-100.00,SSW,205,0.0,0.0,45,0.00,,,-99.99,,2013-08-31 21:54:00,
2013-08-31 17:04:00,84.0,60.0,-100.00,SSW,205,0.0,0.0,45,0.00,,,-99.99,,2013-08-31 22:04:00,
2013-08-31 17:10:00,81.0,62.0,-100.00,West,265,0.0,0.0,51,0.00,,,-99.99,,2013-08-31 22:10:00,
2013-08-31 17:44:00,81.0,62.0,-100.00,West,265,0.0,0.0,51,0.00,,,-99.99,,2013-08-31 22:44:00,
2013-08-31 17:53:00,81.0,62.0,-100.00,West,265,0.0,0.0,51,0.00,,,-99.99,,2013-08-31 22:53:00,
2013-08-31 18:03:00,81.0,62.0,-100.00,West,265,0.0,0.0,51,0.00,,,-99.99,,2013-08-31 23:03:00,
2013-08-31 18:10:00,79.0,62.0,-100.00,SSE,160,0.0,0.0,57,0.00,,,-99.99,,2013-08-31 23:10:00,
2013-08-31 18:42:00,79.0,62.0,-100.00,SSE,160,0.0,0.0,57,0.00,,,-99.99,,2013-08-31 23:42:00,
2013-08-31 18:52:00,79.0,62.0,-100.00,SSE,160,0.0,0.0,57,0.00,,,-99.99,,2013-08-31 23:52:00,
2013-08-31 19:01:00,79.0,62.0,-100.00,SSE,160,0.0,0.0,57,0.00,,,-99.99,,2013-09-01 00:01:00,
2013-08-31 20:12:00,72.0,65.0,-100.00,West,270,0.0,0.0,80,0.00,,,-99.99,,2013-09-01 01:12:00,
2013-08-31 20:42:00,72.0,65.0,-100.00,West,270,0.0,0.0,80,0.00,,,-99.99,,2013-09-01 01:42:00,
2013-08-31 20:52:00,72.0,65.0,-100.00,West,270,0.0,0.0,80,0.00,,,-99.99,,2013-09-01 01:52:00,
2013-08-31 21:02:00,72.0,65.0,-100.00,West,270,0.0,0.0,80,0.00,,,-99.99,,2013-09-01 02:02:00,
2013-08-31 21:10:00,72.0,66.0,-100.00,NW,305,0.0,0.0,83,0.00,,,-99.99,,2013-09-01 02:10:00,
2013-08-31 21:43:00,72.0,66.0,-100.00,NW,305,0.0,0.0,83,0.00,,,-99.99,,2013-09-01 02:43:00,
2013-08-31 21:53:00,72.0,66.0,-100.00,NW,305,0.0,0.0,83,0.00,,,-99.99,,2013-09-01 02:53:00,
2013-08-31 22:02:00,72.0,66.0,-100.00,NW,305,0.0,0.0,83,0.00,,,-99.99,,2013-09-01 03:02:00,
2013-08-31 22:44:00,71.0,68.0,-100.00,WNW,290,0.0,0.0,88,0.00,,,-99.99,,2013-09-01 03:44:00,
2013-08-31 22:54:00,71.0,68.0,-100.00,WNW,290,0.0,0.0,88,0.00,,,-99.99,,2013-09-01 03:54:00,
2013-08-31 23:03:00,-999.0,-99.9,-100.00,WNW,290,0.0,0.0,-999,-99.99,,,-99.99,,2013-09-01 04:03:00,
2013-08-31 23:43:00,71.0,68.0,-100.00,WNW,295,0.0,0.0,92,0.00,,,-99.99,,2013-09-01 04:43:00,
2013-08-31 23:54:00,71.0,68.0,-100.00,WNW,295,0.0,0.0,92,0.00,,,-99.99,,2013-09-01 04:54:00,